Location: Unspecified
(0.0000°N, 0.0000°E)
Time: 18:05:01
(UTC+00:00)

COSMOS 2496 - Pass Details

Date: 25 May 2026
Orbit: 1478 x 1511 km, 82.4° (Epoch: 10 June)

Event Time Altitude Azimuth Distance (km) Brightness Sun altitude
Rises 02:43:52 0° 21° (NNE) 4,584 ? -44.2°
Reaches altitude 10° 02:47:21 10° 33° (NNE) 3,609 ? -43.4°
Maximum altitude 02:54:16 27° 87° (E) 2,548 ? -41.9°
Drops below altitude 10° 03:01:12 10° 140° (SE) 3,634 ? -40.4°
Sets 03:04:40 0° 152° (SSE) 4,621 ? -39.6°
